Flag for U.S.A. Weather past 2 weeks in Dickinson, North Dakota, U.S.A.

Now
68 °F

Clear.


Feels Like: 68 °F
Forecast: 58 / 69 °F
Wind: 7 mph from Northeast

Location: Dickinson Municipal Airport

Current Time: Jul 5, 2015 at 12:52:54 AM

Latest Report: Jul 4, 2015 at 11:56 PM


Visibility: 10 mi

Pressure: 29.69 "Hg (27.25 "Hg at 735m altitude)

Humidity: 68%

Dew point: 57 °F

Location of DickinsonLocation

Historic Weather in Dickinson — Graph

°F

Dickinson temperature yesterday

Maximum temperature yesterday: 88 °F (at 1:56 PM)
Minimum temperature yesterday: 63 °F (at 2:56 AM)
Average temperature yesterday: 75 °F

Past Weeks' High & Low Weather Summary

 TemperatureHumidityPressure
High92 °F (Jun 29, 4:56 PM)97% (Jul 1, 3:56 AM)30.15 "Hg (Jul 1, 3:56 AM)
Low49 °F (Jun 23, 3:56 AM)29% (Jul 4, 6:56 PM)29.65 "Hg (Jun 21, 5:56 PM)
Average68 °F71%29.94 "Hg
* Reported Jun 19 11:56 PM — Jul 4 11:56 PM, Dickinson, Weather by CustomWeather, © 2015

Note: Actual official high and low records may vary slightly from our data, if they occured in-between our weather recording intervals... More about our weather records

Advertising

Dickinson weather history for previous 24 hours

 ConditionsComfort  
Time TempWeatherWind HumidityBarometerVisibility
11:56 PM
Sat, Jul 4
68 °FClear.7 mph68%29.69 "Hg10 mi
10:56 PM68 °FFog.6 mph87%29.71 "Hg5 mi
9:56 PM69 °FClear.6 mph87%29.70 "Hg9 mi
8:56 PM75 °FClear.6 mph71%29.67 "Hg9 mi
7:56 PM79 °FPassing clouds.8 mph56%29.68 "Hg10 mi
6:56 PM84 °FLight rain. Broken clouds.16 mph29%29.67 "Hg10 mi
5:56 PM81 °FPassing clouds.9 mph67%29.67 "Hg9 mi
4:56 PM83 °FSunny.6 mph63%29.69 "Hg9 mi
3:56 PM85 °FSunny.9 mph55%29.67 "Hg9 mi
2:56 PM88 °FSunny.12 mph46%29.69 "Hg9 mi
1:56 PM88 °FSunny.7 mph46%29.70 "Hg8 mi
12:56 PM87 °FSunny.9 mph46%29.70 "Hg8 mi
11:56 AM85 °FSunny.7 mph53%29.71 "Hg6 mi
10:56 AM82 °FSunny.8 mph58%29.72 "Hg6 mi
9:56 AM78 °FSunny.10 mph64%29.73 "Hg5 mi
8:56 AM74 °FSunny.10 mph69%29.74 "Hg4 mi
7:56 AM71 °FSunny.12 mph73%29.75 "Hg3 mi
6:56 AM67 °FSunny.10 mph81%29.75 "Hg3 mi
5:56 AM63 °FFog.10 mph87%29.76 "Hg2 mi
4:56 AM63 °FFog.10 mph87%29.77 "Hg3 mi
3:56 AM63 °FFog.8 mph87%29.78 "Hg3 mi
2:56 AM63 °FFog.8 mph90%29.80 "Hg2 mi
1:56 AM64 °FFog.8 mph90%29.80 "Hg2 mi
12:56 AM66 °FFog.9 mph87%29.81 "Hg2 mi
Weather by CustomWeather, © 2015

See weather overviewHow to use our weather pages